Time,TemperatureF,DewpointF,PressureIn,WindDirection,WindDirectionDegrees,WindSpeedMPH,WindSpeedGustMPH,Humidity,HourlyPrecipIn,Conditions,Clouds,dailyrainin,SoftwareType,DateUTC
2013-02-19 00:02:00,45.0,-99.9,-100.00,South,170,13.0,31.0,-999,-99.99,,,-99.99,,2013-02-19 05:02:00,
2013-02-19 00:13:00,45.0,-99.9,-100.00,SSE,166,13.0,0.0,-999,-99.99,,,-99.99,,2013-02-19 05:13:00,
2013-02-19 00:23:00,46.0,-99.9,-100.00,South,171,14.0,34.0,-999,-99.99,,,-99.99,,2013-02-19 05:23:00,
2013-02-19 00:33:00,46.0,-99.9,-100.00,South,171,14.0,34.0,-999,-99.99,,,-99.99,,2013-02-19 05:33:00,
2013-02-19 00:43:00,46.0,-99.9,-100.00,South,171,14.0,34.0,-999,-99.99,,,-99.99,,2013-02-19 05:43:00,
2013-02-19 00:53:00,43.0,-99.9,-100.00,South,191,21.0,31.0,-999,-99.99,,,-99.99,,2013-02-19 05:53:00,
2013-02-19 01:03:00,43.0,-99.9,-100.00,South,191,21.0,31.0,-999,-99.99,,,-99.99,,2013-02-19 06:03:00,
2013-02-19 01:12:00,43.0,-99.9,-100.00,South,191,21.0,31.0,-999,-99.99,,,-99.99,,2013-02-19 06:12:00,
2013-02-19 01:22:00,36.0,-99.9,-100.00,SW,228,24.0,30.0,-999,-99.99,,,-99.99,,2013-02-19 06:22:00,
2013-02-19 01:33:00,36.0,-99.9,-100.00,SW,228,24.0,30.0,-999,-99.99,,,-99.99,,2013-02-19 06:33:00,
2013-02-19 01:42:00,36.0,-99.9,-100.00,SW,228,24.0,30.0,-999,-99.99,,,-99.99,,2013-02-19 06:42:00,
2013-02-19 01:53:00,38.0,-99.9,-100.00,SW,230,23.0,0.0,-999,-99.99,,,-99.99,,2013-02-19 06:53:00,
2013-02-19 02:02:00,38.0,-99.9,-100.00,SW,230,23.0,0.0,-999,-99.99,,,-99.99,,2013-02-19 07:02:00,
2013-02-19 02:12:00,35.0,-99.9,-100.00,WSW,238,23.0,0.0,-999,-99.99,,,-99.99,,2013-02-19 07:12:00,
2013-02-19 02:22:00,35.0,-99.9,-100.00,SW,224,27.0,34.0,-999,-99.99,,,-99.99,,2013-02-19 07:22:00,
2013-02-19 02:33:00,35.0,-99.9,-100.00,SW,224,27.0,34.0,-999,-99.99,,,-99.99,,2013-02-19 07:33:00,
2013-02-19 02:42:00,35.0,-99.9,-100.00,WSW,238,23.0,0.0,-999,-99.99,,,-99.99,,2013-02-19 07:42:00,
2013-02-19 02:52:00,35.0,-99.9,-100.00,WSW,238,23.0,0.0,-999,-99.99,,,-99.99,,2013-02-19 07:52:00,
2013-02-19 03:02:00,35.0,-99.9,-100.00,WSW,238,23.0,0.0,-999,-99.99,,,-99.99,,2013-02-19 08:02:00,
2013-02-19 03:12:00,33.0,-99.9,-100.00,SW,226,31.0,0.0,-999,-99.99,,,-99.99,,2013-02-19 08:12:00,
2013-02-19 03:22:00,32.0,-99.9,-100.00,SW,226,29.0,36.0,-999,-99.99,,,-99.99,,2013-02-19 08:22:00,
2013-02-19 03:32:00,32.0,-99.9,-100.00,SW,226,29.0,36.0,-999,-99.99,,,-99.99,,2013-02-19 08:32:00,
2013-02-19 03:42:00,33.0,-99.9,-100.00,SW,226,31.0,0.0,-999,-99.99,,,-99.99,,2013-02-19 08:42:00,
2013-02-19 03:52:00,33.0,-99.9,-100.00,SW,226,31.0,0.0,-999,-99.99,,,-99.99,,2013-02-19 08:52:00,
2013-02-19 04:02:00,31.0,-99.9,-100.00,SW,228,29.0,0.0,-999,-99.99,,,-99.99,,2013-02-19 09:02:00,
2013-02-19 04:11:00,31.0,-99.9,-100.00,SW,228,29.0,0.0,-999,-99.99,,,-99.99,,2013-02-19 09:11:00,
2013-02-19 04:22:00,30.0,-99.9,-100.00,SW,223,30.0,38.0,-999,-99.99,,,-99.99,,2013-02-19 09:22:00,
2013-02-19 04:32:00,30.0,-99.9,-100.00,SW,223,30.0,38.0,-999,-99.99,,,-99.99,,2013-02-19 09:32:00,
2013-02-19 04:42:00,30.0,-99.9,-100.00,SW,223,30.0,38.0,-999,-99.99,,,-99.99,,2013-02-19 09:42:00,
2013-02-19 04:53:00,30.0,-99.9,-100.00,SW,223,30.0,38.0,-999,-99.99,,,-99.99,,2013-02-19 09:53:00,
2013-02-19 05:02:00,28.0,-99.9,-100.00,SW,226,30.0,0.0,-999,-99.99,,,-99.99,,2013-02-19 10:02:00,
2013-02-19 05:11:00,28.0,-99.9,-100.00,SW,226,30.0,0.0,-999,-99.99,,,-99.99,,2013-02-19 10:11:00,
2013-02-19 05:22:00,29.0,-99.9,-100.00,SW,232,25.0,36.0,-999,-99.99,,,-99.99,,2013-02-19 10:22:00,
2013-02-19 05:32:00,28.0,-99.9,-100.00,SW,226,30.0,0.0,-999,-99.99,,,-99.99,,2013-02-19 10:32:00,
2013-02-19 05:42:00,28.0,-99.9,-100.00,SW,226,30.0,0.0,-999,-99.99,,,-99.99,,2013-02-19 10:42:00,
2013-02-19 05:52:00,27.0,-99.9,-100.00,SW,216,31.0,0.0,-999,-99.99,,,-99.99,,2013-02-19 10:52:00,
2013-02-19 06:02:00,27.0,-99.9,-100.00,SW,216,31.0,0.0,-999,-99.99,,,-99.99,,2013-02-19 11:02:00,
2013-02-19 06:12:00,27.0,-99.9,-100.00,SW,216,31.0,0.0,-999,-99.99,,,-99.99,,2013-02-19 11:12:00,
2013-02-19 06:22:00,27.0,-99.9,-100.00,SW,230,29.0,35.0,-999,-99.99,,,-99.99,,2013-02-19 11:22:00,
2013-02-19 06:32:00,27.0,-99.9,-100.00,SW,216,31.0,0.0,-999,-99.99,,,-99.99,,2013-02-19 11:32:00,
2013-02-19 06:42:00,27.0,-99.9,-100.00,SW,216,31.0,0.0,-999,-99.99,,,-99.99,,2013-02-19 11:42:00,
2013-02-19 06:52:00,27.0,-99.9,-100.00,SW,216,31.0,0.0,-999,-99.99,,,-99.99,,2013-02-19 11:52:00,
2013-02-19 07:02:00,27.0,-99.9,-100.00,SW,216,31.0,0.0,-999,-99.99,,,-99.99,,2013-02-19 12:02:00,
2013-02-19 07:12:00,25.0,-99.9,-100.00,SW,222,29.0,0.0,-999,-99.99,,,-99.99,,2013-02-19 12:12:00,
2013-02-19 07:22:00,25.0,-99.9,-100.00,SW,223,31.0,37.0,-999,-99.99,,,-99.99,,2013-02-19 12:22:00,
2013-02-19 07:33:00,25.0,-99.9,-100.00,SW,223,31.0,37.0,-999,-99.99,,,-99.99,,2013-02-19 12:33:00,
2013-02-19 07:42:00,25.0,-99.9,-100.00,SW,223,31.0,37.0,-999,-99.99,,,-99.99,,2013-02-19 12:42:00,
2013-02-19 07:53:00,25.0,-99.9,-100.00,SW,222,29.0,0.0,-999,-99.99,,,-99.99,,2013-02-19 12:53:00,
2013-02-19 08:02:00,24.0,-99.9,-100.00,SW,232,27.0,0.0,-999,-99.99,,,-99.99,,2013-02-19 13:02:00,
2013-02-19 08:11:00,24.0,-99.9,-100.00,SW,232,27.0,0.0,-999,-99.99,,,-99.99,,2013-02-19 13:11:00,
2013-02-19 08:22:00,23.0,-99.9,-100.00,SW,221,29.0,37.0,-999,-99.99,,,-99.99,,2013-02-19 13:22:00,
2013-02-19 08:32:00,23.0,-99.9,-100.00,SW,221,29.0,37.0,-999,-99.99,,,-99.99,,2013-02-19 13:32:00,
2013-02-19 08:42:00,23.0,-99.9,-100.00,SW,221,29.0,37.0,-999,-99.99,,,-99.99,,2013-02-19 13:42:00,
2013-02-19 08:52:00,24.0,-99.9,-100.00,SW,232,27.0,0.0,-999,-99.99,,,-99.99,,2013-02-19 13:52:00,
2013-02-19 09:02:00,24.0,-99.9,-100.00,SW,232,27.0,0.0,-999,-99.99,,,-99.99,,2013-02-19 14:02:00,
2013-02-19 09:12:00,23.0,-99.9,-100.00,SW,225,30.0,0.0,-999,-99.99,,,-99.99,,2013-02-19 14:12:00,
2013-02-19 09:22:00,23.0,-99.9,-100.00,SW,236,28.0,36.0,-999,-99.99,,,-99.99,,2013-02-19 14:22:00,
2013-02-19 09:33:00,23.0,-99.9,-100.00,SW,236,28.0,36.0,-999,-99.99,,,-99.99,,2013-02-19 14:33:00,
2013-02-19 09:42:00,23.0,-99.9,-100.00,SW,225,30.0,0.0,-999,-99.99,,,-99.99,,2013-02-19 14:42:00,
2013-02-19 09:52:00,23.0,-99.9,-100.00,SW,225,30.0,0.0,-999,-99.99,,,-99.99,,2013-02-19 14:52:00,
2013-02-19 10:02:00,22.0,-99.9,-100.00,SW,226,31.0,0.0,-999,-99.99,,,-99.99,,2013-02-19 15:02:00,
2013-02-19 10:11:00,22.0,-99.9,-100.00,SW,226,31.0,0.0,-999,-99.99,,,-99.99,,2013-02-19 15:11:00,
2013-02-19 10:22:00,22.0,-99.9,-100.00,SW,236,26.0,35.0,-999,-99.99,,,-99.99,,2013-02-19 15:22:00,
2013-02-19 10:32:00,22.0,-99.9,-100.00,SW,236,26.0,35.0,-999,-99.99,,,-99.99,,2013-02-19 15:32:00,
2013-02-19 10:42:00,22.0,-99.9,-100.00,SW,236,26.0,35.0,-999,-99.99,,,-99.99,,2013-02-19 15:42:00,
2013-02-19 10:52:00,22.0,-99.9,-100.00,SW,226,31.0,0.0,-999,-99.99,,,-99.99,,2013-02-19 15:52:00,
2013-02-19 11:02:00,22.0,-99.9,-100.00,SW,226,31.0,0.0,-999,-99.99,,,-99.99,,2013-02-19 16:02:00,
2013-02-19 11:12:00,21.0,-99.9,-100.00,WSW,243,28.0,0.0,-999,-99.99,,,-99.99,,2013-02-19 16:12:00,
2013-02-19 11:22:00,21.0,-99.9,-100.00,SW,236,27.0,35.0,-999,-99.99,,,-99.99,,2013-02-19 16:22:00,
2013-02-19 11:32:00,21.0,-99.9,-100.00,SW,236,27.0,35.0,-999,-99.99,,,-99.99,,2013-02-19 16:32:00,
2013-02-19 11:42:00,21.0,-99.9,-100.00,WSW,243,28.0,0.0,-999,-99.99,,,-99.99,,2013-02-19 16:42:00,
2013-02-19 11:52:00,21.0,-99.9,-100.00,WSW,243,28.0,0.0,-999,-99.99,,,-99.99,,2013-02-19 16:52:00,
2013-02-19 12:01:00,21.0,-99.9,-100.00,SW,236,27.0,0.0,-999,-99.99,,,-99.99,,2013-02-19 17:01:00,
2013-02-19 12:11:00,21.0,-99.9,-100.00,SW,236,27.0,0.0,-999,-99.99,,,-99.99,,2013-02-19 17:11:00,
2013-02-19 12:22:00,21.0,-99.9,-100.00,WSW,245,24.0,31.0,-999,-99.99,,,-99.99,,2013-02-19 17:22:00,
2013-02-19 12:32:00,21.0,-99.9,-100.00,WSW,245,24.0,31.0,-999,-99.99,,,-99.99,,2013-02-19 17:32:00,
2013-02-19 12:42:00,21.0,-99.9,-100.00,SW,236,27.0,0.0,-999,-99.99,,,-99.99,,2013-02-19 17:42:00,
2013-02-19 12:52:00,21.0,-99.9,-100.00,SW,236,27.0,0.0,-999,-99.99,,,-99.99,,2013-02-19 17:52:00,
2013-02-19 13:02:00,21.0,-99.9,-100.00,SW,236,27.0,0.0,-999,-99.99,,,-99.99,,2013-02-19 18:02:00,
2013-02-19 13:11:00,20.0,-99.9,-100.00,SW,236,28.0,0.0,-999,-99.99,,,-99.99,,2013-02-19 18:11:00,
2013-02-19 13:22:00,20.0,-99.9,-100.00,WSW,239,27.0,34.0,-999,-99.99,,,-99.99,,2013-02-19 18:22:00,
2013-02-19 13:32:00,20.0,-99.9,-100.00,WSW,239,27.0,34.0,-999,-99.99,,,-99.99,,2013-02-19 18:32:00,
2013-02-19 13:42:00,20.0,-99.9,-100.00,WSW,239,27.0,34.0,-999,-99.99,,,-99.99,,2013-02-19 18:42:00,
2013-02-19 13:52:00,20.0,-99.9,-100.00,SW,236,28.0,0.0,-999,-99.99,,,-99.99,,2013-02-19 18:52:00,
2013-02-19 14:02:00,20.0,-99.9,-100.00,SW,228,26.0,0.0,-999,-99.99,,,-99.99,,2013-02-19 19:02:00,
2013-02-19 14:11:00,20.0,-99.9,-100.00,SW,228,26.0,0.0,-999,-99.99,,,-99.99,,2013-02-19 19:11:00,
2013-02-19 14:22:00,20.0,-99.9,-100.00,WSW,244,23.0,33.0,-999,-99.99,,,-99.99,,2013-02-19 19:22:00,
2013-02-19 14:32:00,20.0,-99.9,-100.00,SW,228,26.0,0.0,-999,-99.99,,,-99.99,,2013-02-19 19:32:00,
2013-02-19 14:42:00,20.0,-99.9,-100.00,SW,228,26.0,0.0,-999,-99.99,,,-99.99,,2013-02-19 19:42:00,
2013-02-19 14:52:00,20.0,-99.9,-100.00,SW,228,26.0,0.0,-999,-99.99,,,-99.99,,2013-02-19 19:52:00,
2013-02-19 15:02:00,20.0,-99.9,-100.00,SW,228,26.0,0.0,-999,-99.99,,,-99.99,,2013-02-19 20:02:00,
2013-02-19 15:12:00,20.0,-99.9,-100.00,SW,228,26.0,0.0,-999,-99.99,,,-99.99,,2013-02-19 20:12:00,
2013-02-19 15:22:00,20.0,-99.9,-100.00,WSW,243,26.0,36.0,-999,-99.99,,,-99.99,,2013-02-19 20:22:00,
2013-02-19 15:32:00,20.0,-99.9,-100.00,WSW,243,26.0,36.0,-999,-99.99,,,-99.99,,2013-02-19 20:32:00,
2013-02-19 15:42:00,20.0,-99.9,-100.00,WSW,243,26.0,36.0,-999,-99.99,,,-99.99,,2013-02-19 20:42:00,
2013-02-19 15:52:00,20.0,-99.9,-100.00,WSW,243,26.0,36.0,-999,-99.99,,,-99.99,,2013-02-19 20:52:00,
2013-02-19 16:02:00,20.0,-99.9,-100.00,WSW,240,26.0,0.0,-999,-99.99,,,-99.99,,2013-02-19 21:02:00,
2013-02-19 16:11:00,20.0,-99.9,-100.00,WSW,240,26.0,0.0,-999,-99.99,,,-99.99,,2013-02-19 21:11:00,
2013-02-19 16:22:00,20.0,-99.9,-100.00,SW,236,26.0,32.0,-999,-99.99,,,-99.99,,2013-02-19 21:22:00,
2013-02-19 16:32:00,20.0,-99.9,-100.00,SW,236,26.0,32.0,-999,-99.99,,,-99.99,,2013-02-19 21:32:00,
2013-02-19 16:42:00,20.0,-99.9,-100.00,SW,236,26.0,32.0,-999,-99.99,,,-99.99,,2013-02-19 21:42:00,
2013-02-19 16:52:00,20.0,-99.9,-100.00,WSW,240,26.0,0.0,-999,-99.99,,,-99.99,,2013-02-19 21:52:00,
2013-02-19 17:02:00,20.0,-99.9,-100.00,WSW,240,26.0,0.0,-999,-99.99,,,-99.99,,2013-02-19 22:02:00,
2013-02-19 17:11:00,20.0,-99.9,-100.00,WSW,240,26.0,0.0,-999,-99.99,,,-99.99,,2013-02-19 22:11:00,
2013-02-19 17:22:00,20.0,-99.9,-100.00,WSW,242,24.0,33.0,-999,-99.99,,,-99.99,,2013-02-19 22:22:00,
2013-02-19 17:32:00,20.0,-99.9,-100.00,WSW,242,24.0,33.0,-999,-99.99,,,-99.99,,2013-02-19 22:32:00,
2013-02-19 17:42:00,20.0,-99.9,-100.00,WSW,242,24.0,33.0,-999,-99.99,,,-99.99,,2013-02-19 22:42:00,
2013-02-19 18:01:00,20.0,-99.9,-100.00,WSW,240,26.0,0.0,-999,-99.99,,,-99.99,,2013-02-19 23:01:00,
2013-02-19 18:11:00,20.0,-99.9,-100.00,SW,233,26.0,0.0,-999,-99.99,,,-99.99,,2013-02-19 23:11:00,
2013-02-19 18:21:00,20.0,-99.9,-100.00,SW,229,26.0,33.0,-999,-99.99,,,-99.99,,2013-02-19 23:21:00,
2013-02-19 18:32:00,20.0,-99.9,-100.00,SW,229,26.0,33.0,-999,-99.99,,,-99.99,,2013-02-19 23:32:00,
2013-02-19 18:42:00,20.0,-99.9,-100.00,SW,233,26.0,0.0,-999,-99.99,,,-99.99,,2013-02-19 23:42:00,
2013-02-19 18:52:00,20.0,-99.9,-100.00,SW,233,26.0,0.0,-999,-99.99,,,-99.99,,2013-02-19 23:52:00,
2013-02-19 19:02:00,20.0,-99.9,-100.00,SW,233,26.0,0.0,-999,-99.99,,,-99.99,,2013-02-20 00:02:00,
2013-02-19 19:12:00,20.0,-99.9,-100.00,WSW,241,24.0,29.0,-999,-99.99,,,-99.99,,2013-02-20 00:12:00,
2013-02-19 19:22:00,20.0,-99.9,-100.00,WSW,238,25.0,29.0,-999,-99.99,,,-99.99,,2013-02-20 00:22:00,
2013-02-19 19:32:00,20.0,-99.9,-100.00,WSW,238,25.0,29.0,-999,-99.99,,,-99.99,,2013-02-20 00:32:00,
2013-02-19 19:42:00,20.0,-99.9,-100.00,WSW,241,24.0,29.0,-999,-99.99,,,-99.99,,2013-02-20 00:42:00,
2013-02-19 19:52:00,20.0,-99.9,-100.00,WSW,241,24.0,29.0,-999,-99.99,,,-99.99,,2013-02-20 00:52:00,
2013-02-19 20:02:00,20.0,-99.9,-100.00,WSW,241,24.0,29.0,-999,-99.99,,,-99.99,,2013-02-20 01:02:00,
2013-02-19 20:11:00,20.0,-99.9,-100.00,WSW,241,24.0,29.0,-999,-99.99,,,-99.99,,2013-02-20 01:11:00,
2013-02-19 20:22:00,21.0,-99.9,-100.00,WSW,242,24.0,29.0,-999,-99.99,,,-99.99,,2013-02-20 01:22:00,
2013-02-19 20:32:00,21.0,-99.9,-100.00,WSW,242,24.0,29.0,-999,-99.99,,,-99.99,,2013-02-20 01:32:00,
2013-02-19 20:42:00,20.0,-99.9,-100.00,WSW,240,23.0,29.0,-999,-99.99,,,-99.99,,2013-02-20 01:42:00,
2013-02-19 20:52:00,20.0,-99.9,-100.00,WSW,240,23.0,29.0,-999,-99.99,,,-99.99,,2013-02-20 01:52:00,
2013-02-19 21:02:00,20.0,-99.9,-100.00,WSW,240,23.0,29.0,-999,-99.99,,,-99.99,,2013-02-20 02:02:00,
2013-02-19 21:11:00,20.0,-99.9,-100.00,West,268,23.0,0.0,-999,-99.99,,,-99.99,,2013-02-20 02:11:00,
2013-02-19 21:22:00,20.0,-99.9,-100.00,West,280,22.0,30.0,-999,-99.99,,,-99.99,,2013-02-20 02:22:00,
2013-02-19 21:32:00,20.0,-99.9,-100.00,West,280,22.0,30.0,-999,-99.99,,,-99.99,,2013-02-20 02:32:00,
2013-02-19 21:42:00,20.0,-99.9,-100.00,West,280,22.0,30.0,-999,-99.99,,,-99.99,,2013-02-20 02:42:00,
2013-02-19 21:52:00,20.0,-99.9,-100.00,West,268,23.0,0.0,-999,-99.99,,,-99.99,,2013-02-20 02:52:00,
2013-02-19 22:02:00,20.0,-99.9,-100.00,West,268,23.0,0.0,-999,-99.99,,,-99.99,,2013-02-20 03:02:00,
2013-02-19 22:12:00,20.0,-99.9,-100.00,West,268,23.0,0.0,-999,-99.99,,,-99.99,,2013-02-20 03:12:00,
2013-02-19 22:22:00,19.0,-99.9,-100.00,WNW,283,20.0,26.0,-999,-99.99,,,-99.99,,2013-02-20 03:22:00,
2013-02-19 22:32:00,19.0,-99.9,-100.00,WNW,283,20.0,26.0,-999,-99.99,,,-99.99,,2013-02-20 03:32:00,
2013-02-19 22:42:00,20.0,-99.9,-100.00,West,275,22.0,29.0,-999,-99.99,,,-99.99,,2013-02-20 03:42:00,
2013-02-19 22:52:00,20.0,-99.9,-100.00,West,275,22.0,29.0,-999,-99.99,,,-99.99,,2013-02-20 03:52:00,
2013-02-19 23:02:00,20.0,-99.9,-100.00,West,275,22.0,29.0,-999,-99.99,,,-99.99,,2013-02-20 04:02:00,
2013-02-19 23:11:00,20.0,-99.9,-100.00,West,277,21.0,28.0,-999,-99.99,,,-99.99,,2013-02-20 04:11:00,
2013-02-19 23:22:00,19.0,-99.9,-100.00,West,269,23.0,28.0,-999,-99.99,,,-99.99,,2013-02-20 04:22:00,
2013-02-19 23:32:00,19.0,-99.9,-100.00,West,269,23.0,28.0,-999,-99.99,,,-99.99,,2013-02-20 04:32:00,
2013-02-19 23:42:00,19.0,-99.9,-100.00,West,269,23.0,28.0,-999,-99.99,,,-99.99,,2013-02-20 04:42:00,
2013-02-19 23:52:00,20.0,-99.9,-100.00,West,277,21.0,28.0,-999,-99.99,,,-99.99,,2013-02-20 04:52:00,